Observation Tools

American elm Photo courtesy of Steve Baskauf, Vanderbilt University, bioimages.vanderbilt.edu.

American elm (Ulmus americana)


Plant Family: Elm (Ulmaceae)
Project BudBurst Plant Group: Deciduous Trees and Shrubs

Identification Hints: The American elm is a tree whichcan grow up to 100 feet tall. It is found over much of the easternUnited States, as far north as Maine and as far south as Texas. Its range extends west into Montana andWyoming. The flowers of the American elm emerge before the leaves, so keep a close eye on them inthe spring. The flowers are small and purplish-brown in color.

Did you Know? American elm was first described by Carolus Linneaus in 1753. The flowers are small, purplish-brown and very inconspicous. The flowers are wind-pollinated and do not have any petals. The fruits are flat and round with a seed encapsulated in a papery, wing-like outer covering. This fruit type is considered a samara by botanists. The fruits also rely on wind for dispersal.


Live Map for American elm

Other years available for viewing:

Below you can view all observations that have been reported in for American elm (If the map below is empty then there have not been any observations reported.)

Use the navigation buttons on the left to zoom in/out and pan around. Click on each place marker to get detail information about that observation.

Leaf/Needles/Stalk = Leaf/Needles/Stalk Flower = Flower Pollen = Pollen Fruiting = Fruiting Color = Color

--Back to Top--

close help window button

The table below displays all the data that has been submitted to Project BudBurst. By default, the data is sorted by the date on which the phenophase occurred. Clicking the up and down arrows next to each column name allows you to sort on any value. If there have been more than 10 observations submitted, you can choose how many to display at a time using the "Show __ entries" control. You can also page through the data using the previous and next buttons at the bottom right of the table.

The Search box allows you to search all of the data. Searching by date, species, phenophase, etc. is easy—just start typing and the table will immediately change to contain only observations that contain your search phrase. Do you want to see only 2012 observations? Just type "2012" in the search box. Only want to see maples? Enter "Acer." You can combine searches, too! Searching for "acer 2012" will narrow your results to only the maples that were observed in 2012 (assuming that any observations exist, of course).

Once you have your results in the order desired, you can use any of the buttons above the search box to copy the results to the clipboard; save them as a text, or spreadsheet; or even print them from your browser!

Observational data for American elm:

help button
Date Contributor Common Name Species Phenophase Latitude Longitude Obs#
Wed May 25 00:00:00 GMT 2011 sbank03 American elm Ulmus americana Full Fruiting 33.794100000000000 -84.315000000000000 12672
Sat Sep 17 00:00:00 GMT 2011 palaback American elm Ulmus americana Leaves Changing Color (Early) 40.308300000000000 -105.081000000000000 13289
Sun Sep 18 00:00:00 GMT 2011 palaback American elm Ulmus americana Leaves Changing Color (Early) 40.307500000000000 -105.084000000000000 13257
Wed Oct 05 00:00:00 GMT 2011 cralston American elm Ulmus americana Leaves Changing Color (Early) 47.923800000000000 -97.053900000000000 13512
Mon Oct 17 00:00:00 GMT 2011 palaback American elm Ulmus americana Leaves Changing Color (Middle) 40.305600000000000 -105.083000000000000 13689
Sun Apr 01 00:00:00 GMT 2012 palaback American elm Ulmus americana Flowers (Middle) 40.308300000000000 -105.081000000000000 14634
Thu Apr 19 00:00:00 GMT 2012 Erin_VS American elm Ulmus americana Leaves Unfolding (Early) 41.815900000000000 -88.056900000000000 15108
Sun Apr 29 00:00:00 GMT 2012 dipp293 American elm Ulmus americana Leaves Unfolding (Middle) 42.571700000000000 -70.777200000000000 15353
Wed Sep 26 00:00:00 GMT 2012 ricktig American elm Ulmus americana Fruit (Late) 39.500000000000000 -105.500000000000000 16753
Sat Sep 29 00:00:00 GMT 2012 wendy American elm Ulmus americana 50% Color 42.043100000000000 -87.687700000000000 16761
Mon Oct 15 00:00:00 GMT 2012 wendy American elm Ulmus americana 50% Leaf Fall 42.043100000000000 -87.687700000000000 17051
Sat Mar 07 00:00:00 GMT 2009 gmwimp American elm Ulmus americana Bud Burst 38.908400000000000 -77.072500000000000 17990
Fri Apr 17 00:00:00 GMT 2009 gmwimp American elm Ulmus americana First Leaf 38.908400000000000 -77.072500000000000 17991
Mon Apr 27 00:00:00 GMT 2009 gmwimp American elm Ulmus americana All Leaves Unfolded 38.908400000000000 -77.072500000000000 17992
Sat Mar 07 00:00:00 GMT 2009 gmwimp American elm Ulmus americana First Flower 38.908400000000000 -77.072500000000000 17993
Fri Mar 13 00:00:00 GMT 2009 gmwimp American elm Ulmus americana Full Flower 38.908400000000000 -77.072500000000000 17994
Sat Mar 09 00:00:00 GMT 2013 csunkissed1 American elm Ulmus americana Bud Burst 40.071100000000000 -75.302100000000000 18174
Tue Mar 19 00:00:00 GMT 2013 kgarbach_Loyola_University_Chicago_reporter26 American elm Ulmus americana Leaves Unfolding (Early) 42.000700000000000 -87.656600000000000 18178
Tue Mar 12 00:00:00 GMT 2013 kgarbach_Loyola_University_Chicago_reporter26 American elm Ulmus americana Leaves Unfolding (Early) 41.178700000000000 -88.082900000000000 18177
Thu Mar 21 00:00:00 GMT 2013 DCub_CP_reporter13 American elm Ulmus americana Leaves Unfolding (Early) 39.948000000000000 -75.209600000000000 18222
Thu Mar 21 00:00:00 GMT 2013 DCub_CP_reporter13 American elm Ulmus americana Leaves Unfolding (Early) 39.948000000000000 -75.209600000000000 18223
Sun Feb 24 00:00:00 GMT 2013 bgagsIU American elm Ulmus americana Bud Burst 39.176600000000000 -86.530400000000000 18592
Tue Apr 16 00:00:00 GMT 2013 ebruce15 American elm Ulmus americana Bud Burst 33.995800000000000 -84.245200000000000 18976
Sun Apr 14 00:00:00 GMT 2013 wendy American elm Ulmus americana Bud Burst 42.043100000000000 -87.687700000000000 18966
Fri Apr 19 00:00:00 GMT 2013 ecc912 American elm Ulmus americana Bud Burst 41.748500000000000 -72.691300000000000 19448
Mon Apr 22 00:00:00 GMT 2013 ecc912 American elm Ulmus americana First Leaf 41.748500000000000 -72.691300000000000 19449
Sun Apr 28 00:00:00 GMT 2013 ecc912 American elm Ulmus americana All Leaves Unfolded 41.748500000000000 -72.691300000000000 19450
Thu Mar 28 00:00:00 GMT 2013 cwooster American elm Ulmus americana Bud Burst 41.747100000000000 -72.690400000000000 19827
Sun Apr 28 00:00:00 GMT 2013 cwooster American elm Ulmus americana First Leaf 41.747100000000000 -72.690400000000000 19828
Sun May 05 00:00:00 GMT 2013 cwooster American elm Ulmus americana All Leaves Unfolded 41.747100000000000 -72.690400000000000 19829
Thu Sep 12 00:00:00 GMT 2013 brydel_New_Branches_reporter32 American elm Ulmus americana Full Fruiting 42.895800000000000 -85.635200000000000 22023
Thu Sep 12 00:00:00 GMT 2013 brydel_New_Branches_reporter32 American elm Ulmus americana Full Fruiting 42.895800000000000 -85.635200000000000 22024
Thu Sep 12 00:00:00 GMT 2013 brydel_New_Branches_reporter31 American elm Ulmus americana Full Fruiting 42.895800000000000 -85.635200000000000 22022
Tue Sep 24 00:00:00 GMT 2013 lanzitk American elm Ulmus americana Leaves Changing Color (Early) 42.818800000000000 -73.927300000000000 22118
Thu Oct 03 00:00:00 GMT 2013 mlui306 American elm Ulmus americana 50% Color 39.200400000000000 -77.288300000000000 22491
Tue Oct 15 00:00:00 GMT 2013 fuo213 American elm Ulmus americana Leaves Dropping (Late) 40.580900000000000 -105.075000000000000 22593
Tue Oct 29 00:00:00 GMT 2013 robinv1_Washington_College_reporter13 American elm Ulmus americana 50% Color 39.219200000000000 -76.069600000000000 22817
Wed Nov 06 00:00:00 GMT 2013 robinv1_Washington_College_reporter13 American elm Ulmus americana 50% Leaf Fall 39.219200000000000 -76.069600000000000 23012
Fri Nov 01 00:00:00 GMT 2013 sisaacso American elm Ulmus americana 50% Color 39.055600000000000 -86.161100000000000 23200
Mon Nov 04 00:00:00 GMT 2013 sisaacso American elm Ulmus americana 50% Leaf Fall 39.055600000000000 -86.161100000000000 23201
Fri Nov 08 00:00:00 GMT 2013 lillianferch American elm Ulmus americana 50% Color 39.096000000000000 -86.001000000000000 23537
Thu Nov 14 00:00:00 GMT 2013 lillianferch American elm Ulmus americana 50% Leaf Fall 39.096000000000000 -86.001000000000000 23538
Fri Oct 18 00:00:00 GMT 2013 robinv1_Washington_College_reporter5 American elm Ulmus americana 50% Color 39.219200000000000 -76.069600000000000 24237
Mon Dec 02 00:00:00 GMT 2013 robinv1_Washington_College_reporter5 American elm Ulmus americana 50% Leaf Fall 39.219200000000000 -76.069600000000000 24238
Wed Oct 30 00:00:00 GMT 2013 robinv1_Washington_College_reporter8 American elm Ulmus americana 50% Color 39.219200000000000 -76.069600000000000 24261
Mon Sep 16 00:00:00 GMT 2013 robinv1_Washington_College_reporter28 American elm Ulmus americana All Leaves Unfolded 39.219200000000000 -76.069600000000000 24316
Sun Oct 27 00:00:00 GMT 2013 robinv1_Washington_College_reporter28 American elm Ulmus americana 50% Color 39.219200000000000 -76.069600000000000 24317
Tue Oct 29 00:00:00 GMT 2013 robinv1_Washington_College_reporter28 American elm Ulmus americana 50% Leaf Fall 39.219200000000000 -76.069600000000000 24318
Mon Sep 16 00:00:00 GMT 2013 robinv1_Washington_College_reporter28 American elm Ulmus americana All Leaves Unfolded 39.219200000000000 -76.069600000000000 24313
Sun Oct 27 00:00:00 GMT 2013 robinv1_Washington_College_reporter28 American elm Ulmus americana 50% Color 39.219200000000000 -76.069600000000000 24314
Tue Oct 29 00:00:00 GMT 2013 robinv1_Washington_College_reporter28 American elm Ulmus americana 50% Leaf Fall 39.219200000000000 -76.069600000000000 24315
Wed Feb 26 00:00:00 GMT 2014 naturalist American elm Ulmus americana Leaves Unfolding (None) 35.222400000000000 -80.777900000000000 25841
Wed Feb 26 00:00:00 GMT 2014 naturalist American elm Ulmus americana Leaves Changing Color (None) 35.222400000000000 -80.777900000000000 25842
Wed Feb 26 00:00:00 GMT 2014 naturalist American elm Ulmus americana Leaves Dropping (None) 35.222400000000000 -80.777900000000000 25843
Wed Feb 26 00:00:00 GMT 2014 naturalist American elm Ulmus americana Flowers (Early) 35.222400000000000 -80.777900000000000 25844
Wed Feb 26 00:00:00 GMT 2014 naturalist American elm Ulmus americana Fruit (None) 35.222400000000000 -80.777900000000000 25845
Tue Mar 25 00:00:00 GMT 2014 cwilliams American elm Ulmus americana Leaves Unfolding (None) 39.602800000000000 -105.005000000000000 27505
Tue Mar 25 00:00:00 GMT 2014 cwilliams American elm Ulmus americana Leaves Changing Color (None) 39.602800000000000 -105.005000000000000 27506
Tue Mar 25 00:00:00 GMT 2014 cwilliams American elm Ulmus americana Leaves Dropping (None) 39.602800000000000 -105.005000000000000 27507
Tue Mar 25 00:00:00 GMT 2014 cwilliams American elm Ulmus americana Flowers (Early) 39.602800000000000 -105.005000000000000 27508
Tue Mar 25 00:00:00 GMT 2014 cwilliams American elm Ulmus americana Fruit (None) 39.602800000000000 -105.005000000000000 27509
Sat Mar 15 00:00:00 GMT 2014 kford0069@kctcs.edu American elm Ulmus americana Leaves Unfolding (Early) 32.468100000000000 -96.826300000000000 27546
Sat Mar 15 00:00:00 GMT 2014 kford0069@kctcs.edu American elm Ulmus americana Leaves Changing Color (Middle) 32.468100000000000 -96.826300000000000 27547
Sat Mar 15 00:00:00 GMT 2014 kford0069@kctcs.edu American elm Ulmus americana Leaves Dropping (Early) 32.468100000000000 -96.826300000000000 27548
Sat Mar 15 00:00:00 GMT 2014 kford0069@kctcs.edu American elm Ulmus americana Flowers (Early) 32.468100000000000 -96.826300000000000 27549
Sat Mar 15 00:00:00 GMT 2014 kford0069@kctcs.edu American elm Ulmus americana Fruit (None) 32.468100000000000 -96.826300000000000 27550
Thu Mar 27 00:00:00 GMT 2014 pghbotanicgarden American elm Ulmus americana Leaves Unfolding (None) 40.417100000000000 -80.169300000000000 27588
Thu Mar 27 00:00:00 GMT 2014 pghbotanicgarden American elm Ulmus americana Leaves Changing Color (None) 40.417100000000000 -80.169300000000000 27589
Thu Mar 27 00:00:00 GMT 2014 pghbotanicgarden American elm Ulmus americana Leaves Dropping (None) 40.417100000000000 -80.169300000000000 27590
Thu Mar 27 00:00:00 GMT 2014 pghbotanicgarden American elm Ulmus americana Flowers (None) 40.417100000000000 -80.169300000000000 27591
Thu Mar 27 00:00:00 GMT 2014 pghbotanicgarden American elm Ulmus americana Fruit (None) 40.417100000000000 -80.169300000000000 27592
Tue Apr 01 00:00:00 GMT 2014 hausbaun American elm Ulmus americana Full Flower 39.218733000000000 -76.645925000000000 27997
Thu Apr 10 00:00:00 GMT 2014 neddie American elm Ulmus americana Leaves Unfolding (None) 40.789764000000000 -73.956678000000000 28747
Thu Apr 10 00:00:00 GMT 2014 neddie American elm Ulmus americana Leaves Changing Color (None) 40.789764000000000 -73.956678000000000 28748
Thu Apr 10 00:00:00 GMT 2014 neddie American elm Ulmus americana Leaves Dropping (None) 40.789764000000000 -73.956678000000000 28749
Thu Apr 10 00:00:00 GMT 2014 neddie American elm Ulmus americana Flowers (Early) 40.789764000000000 -73.956678000000000 28750
Thu Apr 10 00:00:00 GMT 2014 neddie American elm Ulmus americana Fruit (None) 40.789764000000000 -73.956678000000000 28751
Fri Apr 11 00:00:00 GMT 2014 gyllenfish American elm Ulmus americana Bud Burst 41.870540000000000 -87.785700000000000 29230
Fri Apr 11 00:00:00 GMT 2014 gyllenfish American elm Ulmus americana First Flower 41.870540000000000 -87.785700000000000 29231
Sun Apr 13 00:00:00 GMT 2014 gyllenfish American elm Ulmus americana Full Flower 41.870540000000000 -87.785700000000000 29232
Mon Apr 14 00:00:00 GMT 2014 kapittman American elm Ulmus americana Leaves Unfolding (None) 39.196600000000000 -86.511700000000000 29064
Mon Apr 14 00:00:00 GMT 2014 kapittman American elm Ulmus americana Leaves Changing Color (None) 39.196600000000000 -86.511700000000000 29065
Mon Apr 14 00:00:00 GMT 2014 kapittman American elm Ulmus americana Leaves Dropping (Early) 39.196600000000000 -86.511700000000000 29066
Mon Apr 14 00:00:00 GMT 2014 kapittman American elm Ulmus americana Flowers (None) 39.196600000000000 -86.511700000000000 29067
Mon Apr 14 00:00:00 GMT 2014 kapittman American elm Ulmus americana Fruit (None) 39.196600000000000 -86.511700000000000 29068
Mon Apr 07 00:00:00 GMT 2014 kimladd American elm Ulmus americana Leaves Unfolding (None) 39.164552000000000 -86.519922000000000 29117
Mon Apr 07 00:00:00 GMT 2014 kimladd American elm Ulmus americana Leaves Changing Color (None) 39.164552000000000 -86.519922000000000 29118
Mon Apr 07 00:00:00 GMT 2014 kimladd American elm Ulmus americana Leaves Dropping (None) 39.164552000000000 -86.519922000000000 29119
Mon Apr 07 00:00:00 GMT 2014 kimladd American elm Ulmus americana Flowers (Early) 39.164552000000000 -86.519922000000000 29120
Mon Apr 07 00:00:00 GMT 2014 kimladd American elm Ulmus americana Fruit (Early) 39.164552000000000 -86.519922000000000 29121
Wed Apr 16 00:00:00 GMT 2014 IUTF2014 American elm Ulmus americana Leaves Unfolding (None) 39.177849000000000 -86.519608000000000 29445
Wed Apr 16 00:00:00 GMT 2014 IUTF2014 American elm Ulmus americana Leaves Changing Color (None) 39.177849000000000 -86.519608000000000 29446
Wed Apr 16 00:00:00 GMT 2014 IUTF2014 American elm Ulmus americana Leaves Dropping (None) 39.177849000000000 -86.519608000000000 29447
Wed Apr 16 00:00:00 GMT 2014 IUTF2014 American elm Ulmus americana Flowers (None) 39.177849000000000 -86.519608000000000 29448
Wed Apr 16 00:00:00 GMT 2014 IUTF2014 American elm Ulmus americana Fruit (None) 39.177849000000000 -86.519608000000000 29449
Wed Apr 16 00:00:00 GMT 2014 IUTF2014 American elm Ulmus americana Leaves Unfolding (None) 39.181009000000000 -86.519651000000000 29450
Wed Apr 16 00:00:00 GMT 2014 IUTF2014 American elm Ulmus americana Leaves Unfolding (None) 39.178215000000000 -86.519394000000000 29435
Wed Apr 16 00:00:00 GMT 2014 IUTF2014 American elm Ulmus americana Leaves Changing Color (None) 39.178215000000000 -86.519394000000000 29436
Wed Apr 16 00:00:00 GMT 2014 IUTF2014 American elm Ulmus americana Leaves Dropping (None) 39.178215000000000 -86.519394000000000 29437
Wed Apr 16 00:00:00 GMT 2014 IUTF2014 American elm Ulmus americana Leaves Changing Color (None) 39.181009000000000 -86.519651000000000 29451
Wed Apr 16 00:00:00 GMT 2014 IUTF2014 American elm Ulmus americana Leaves Dropping (None) 39.181009000000000 -86.519651000000000 29452
Wed Apr 16 00:00:00 GMT 2014 IUTF2014 American elm Ulmus americana Flowers (None) 39.181009000000000 -86.519651000000000 29453
Wed Apr 16 00:00:00 GMT 2014 IUTF2014 American elm Ulmus americana Flowers (None) 39.178215000000000 -86.519394000000000 29438
Wed Apr 16 00:00:00 GMT 2014 IUTF2014 American elm Ulmus americana Fruit (None) 39.178215000000000 -86.519394000000000 29439
Wed Apr 16 00:00:00 GMT 2014 IUTF2014 American elm Ulmus americana Fruit (None) 39.181009000000000 -86.519651000000000 29454
Wed Apr 16 00:00:00 GMT 2014 IUTF2014 American elm Ulmus americana Leaves Unfolding (None) 39.177749000000000 -86.519437000000000 29440
Wed Apr 16 00:00:00 GMT 2014 IUTF2014 American elm Ulmus americana Leaves Changing Color (None) 39.177749000000000 -86.519437000000000 29441
Wed Apr 16 00:00:00 GMT 2014 IUTF2014 American elm Ulmus americana Leaves Dropping (None) 39.177749000000000 -86.519437000000000 29442
Wed Apr 16 00:00:00 GMT 2014 IUTF2014 American elm Ulmus americana Flowers (None) 39.177749000000000 -86.519437000000000 29443
Wed Apr 16 00:00:00 GMT 2014 IUTF2014 American elm Ulmus americana Fruit (None) 39.177749000000000 -86.519437000000000 29444
Sun Apr 13 00:00:00 GMT 2014 pghbotanicgarden American elm Ulmus americana Bud Burst 40.417200000000000 -80.169800000000000 29580
Wed Apr 23 00:00:00 GMT 2014 brydel_New_Branches_reporter54 American elm Ulmus americana Bud Burst 42.895800000000000 -85.635200000000000 30347
Fri Sep 13 00:00:00 GMT 2013 brydel_New_Branches_reporter54 American elm Ulmus americana All Leaves Unfolded 42.895800000000000 -85.635200000000000 30348
Fri Oct 11 00:00:00 GMT 2013 brydel_New_Branches_reporter54 American elm Ulmus americana 50% Color 42.895800000000000 -85.635200000000000 30349
Thu Dec 05 00:00:00 GMT 2013 brydel_New_Branches_reporter54 American elm Ulmus americana 50% Leaf Fall 42.895800000000000 -85.635200000000000 30350
Thu May 01 00:00:00 GMT 2014 Philiplunt American elm Ulmus americana Leaves Unfolding (Early) 37.618650000000000 -98.849670000000000 31047
Thu May 01 00:00:00 GMT 2014 Philiplunt American elm Ulmus americana Leaves Changing Color (None) 37.618650000000000 -98.849670000000000 31048
Thu May 01 00:00:00 GMT 2014 Philiplunt American elm Ulmus americana Leaves Dropping (None) 37.618650000000000 -98.849670000000000 31049
Thu May 01 00:00:00 GMT 2014 Philiplunt American elm Ulmus americana Flowers (None) 37.618650000000000 -98.849670000000000 31050
Thu May 01 00:00:00 GMT 2014 Philiplunt American elm Ulmus americana Fruit (None) 37.618650000000000 -98.849670000000000 31051
Sun Apr 27 00:00:00 GMT 2014 pghbotanicgarden American elm Ulmus americana First Leaf 40.417200000000000 -80.169800000000000 31278
Mon May 05 00:00:00 GMT 2014 keighan.mcgoff American elm Ulmus americana Bud Burst 42.316200000000000 -71.084500000000000 32130
Fri May 09 00:00:00 GMT 2014 keighan.mcgoff American elm Ulmus americana First Leaf 42.316200000000000 -71.084500000000000 32131
Mon Sep 16 00:00:00 GMT 2013 keighan.mcgoff American elm Ulmus americana 50% Color 42.316200000000000 -71.084500000000000 32132
Tue Oct 01 00:00:00 GMT 2013 keighan.mcgoff American elm Ulmus americana 50% Leaf Fall 42.316200000000000 -71.084500000000000 32133
Wed May 14 00:00:00 GMT 2014 hyurchenco American elm Ulmus americana Leaves Unfolding (Early) 44.820320000000000 -73.091800000000000 32988
Wed May 14 00:00:00 GMT 2014 hyurchenco American elm Ulmus americana Leaves Changing Color (None) 44.820320000000000 -73.091800000000000 32989
Wed May 14 00:00:00 GMT 2014 hyurchenco American elm Ulmus americana Leaves Dropping (None) 44.820320000000000 -73.091800000000000 32990
Wed May 14 00:00:00 GMT 2014 hyurchenco American elm Ulmus americana Flowers (None) 44.820320000000000 -73.091800000000000 32991
Wed May 14 00:00:00 GMT 2014 hyurchenco American elm Ulmus americana Fruit (None) 44.820320000000000 -73.091800000000000 32992
Wed Sep 10 00:00:00 GMT 2014 Jesusfreak13 American elm Ulmus americana Leaves Unfolding (None) 35.533937000000000 -98.706601000000000 35262
Wed Sep 10 00:00:00 GMT 2014 Jesusfreak13 American elm Ulmus americana Leaves Changing Color (None) 35.533937000000000 -98.706601000000000 35263
Wed Sep 10 00:00:00 GMT 2014 Jesusfreak13 American elm Ulmus americana Leaves Dropping (None) 35.533937000000000 -98.706601000000000 35264
Wed Sep 10 00:00:00 GMT 2014 Jesusfreak13 American elm Ulmus americana Flowers (None) 35.533937000000000 -98.706601000000000 35265
Wed Sep 10 00:00:00 GMT 2014 Jesusfreak13 American elm Ulmus americana Fruit (None) 35.533937000000000 -98.706601000000000 35266
Thu Sep 11 00:00:00 GMT 2014 MKM_Walled_Lake_Central_HS_Swamp_reporter14 American elm Ulmus americana Leaves Unfolding (Late) 42.567104000000000 -83.470341000000000 35282
Thu Sep 11 00:00:00 GMT 2014 MKM_Walled_Lake_Central_HS_Swamp_reporter14 American elm Ulmus americana Leaves Changing Color (None) 42.567104000000000 -83.470341000000000 35283
Thu Sep 11 00:00:00 GMT 2014 MKM_Walled_Lake_Central_HS_Swamp_reporter14 American elm Ulmus americana Leaves Dropping (None) 42.567104000000000 -83.470341000000000 35284
Thu Sep 11 00:00:00 GMT 2014 MKM_Walled_Lake_Central_HS_Swamp_reporter14 American elm Ulmus americana Flowers (None) 42.567104000000000 -83.470341000000000 35285
Thu Sep 11 00:00:00 GMT 2014 MKM_Walled_Lake_Central_HS_Swamp_reporter14 American elm Ulmus americana Fruit (None) 42.567104000000000 -83.470341000000000 35286
Thu Sep 11 00:00:00 GMT 2014 MKM_Walled_Lake_Central_HS_Swamp_reporter25 American elm Ulmus americana Leaves Unfolding (Late) 42.567105000000000 -83.470201000000000 35272
Thu Sep 11 00:00:00 GMT 2014 MKM_Walled_Lake_Central_HS_Swamp_reporter25 American elm Ulmus americana Leaves Changing Color (None) 42.567105000000000 -83.470201000000000 35273
Thu Sep 11 00:00:00 GMT 2014 MKM_Walled_Lake_Central_HS_Swamp_reporter25 American elm Ulmus americana Leaves Dropping (None) 42.567105000000000 -83.470201000000000 35274
Thu Sep 11 00:00:00 GMT 2014 MKM_Walled_Lake_Central_HS_Swamp_reporter25 American elm Ulmus americana Flowers (None) 42.567105000000000 -83.470201000000000 35275
Thu Sep 11 00:00:00 GMT 2014 MKM_Walled_Lake_Central_HS_Swamp_reporter25 American elm Ulmus americana Fruit (None) 42.567105000000000 -83.470201000000000 35276
Fri Oct 03 00:00:00 GMT 2014 crmill American elm Ulmus americana Leaves Unfolding (Late) 39.191100000000000 -96.619310000000000 35968
Fri Oct 03 00:00:00 GMT 2014 crmill American elm Ulmus americana Leaves Changing Color (Early) 39.191100000000000 -96.619310000000000 35969
Fri Oct 03 00:00:00 GMT 2014 crmill American elm Ulmus americana Leaves Dropping (Early) 39.191100000000000 -96.619310000000000 35970
Fri Oct 03 00:00:00 GMT 2014 crmill American elm Ulmus americana Flowers (None) 39.191100000000000 -96.619310000000000 35971
Fri Oct 03 00:00:00 GMT 2014 crmill American elm Ulmus americana Fruit (None) 39.191100000000000 -96.619310000000000 35972
Tue Oct 07 00:00:00 GMT 2014 nlozon American elm Ulmus americana 50% Color 38.987701000000000 -76.942170000000000 36554
Fri Oct 03 00:00:00 GMT 2014 AliviaCurnel American elm Ulmus americana Leaves Unfolding (None) 37.228390000000000 -88.380380000000000 36957
Fri Oct 03 00:00:00 GMT 2014 AliviaCurnel American elm Ulmus americana Leaves Changing Color (Middle) 37.228390000000000 -88.380380000000000 36958
Fri Oct 03 00:00:00 GMT 2014 AliviaCurnel American elm Ulmus americana Leaves Dropping (Late) 37.228390000000000 -88.380380000000000 36959
Fri Oct 03 00:00:00 GMT 2014 AliviaCurnel American elm Ulmus americana Flowers (None) 37.228390000000000 -88.380380000000000 36960
Fri Oct 03 00:00:00 GMT 2014 AliviaCurnel American elm Ulmus americana Fruit (None) 37.228390000000000 -88.380380000000000 36961
Wed Oct 15 00:00:00 GMT 2014 DNeuworth American elm Ulmus americana All Leaves Unfolded 38.991431000000000 -76.942071000000000 37284
Thu Oct 09 00:00:00 GMT 2014 spentzosinghram_Catherine_Cook_School_reporter22 American elm Ulmus americana Leaves Unfolding (None) 41.907760000000000 -87.635850000000000 37528
Thu Oct 09 00:00:00 GMT 2014 spentzosinghram_Catherine_Cook_School_reporter22 American elm Ulmus americana Leaves Changing Color (Middle) 41.907760000000000 -87.635850000000000 37540
Thu Oct 09 00:00:00 GMT 2014 spentzosinghram_Catherine_Cook_School_reporter22 American elm Ulmus americana Leaves Dropping (Middle) 41.907760000000000 -87.635850000000000 37550
Thu Oct 09 00:00:00 GMT 2014 spentzosinghram_Catherine_Cook_School_reporter22 American elm Ulmus americana Flowers (None) 41.907760000000000 -87.635850000000000 37558
Thu Oct 09 00:00:00 GMT 2014 spentzosinghram_Catherine_Cook_School_reporter22 American elm Ulmus americana Fruit (None) 41.907760000000000 -87.635850000000000 37563
Fri Oct 17 00:00:00 GMT 2014 rshuman American elm Ulmus americana Leaves Unfolding (Late) 44.707910000000000 -73.678620000000000 38199
Fri Oct 17 00:00:00 GMT 2014 rshuman American elm Ulmus americana Leaves Changing Color (Late) 44.707910000000000 -73.678620000000000 38200
Fri Oct 17 00:00:00 GMT 2014 rshuman American elm Ulmus americana Leaves Dropping (Early) 44.707910000000000 -73.678620000000000 38201
Fri Oct 17 00:00:00 GMT 2014 rshuman American elm Ulmus americana Flowers (None) 44.707910000000000 -73.678620000000000 38202
Fri Oct 17 00:00:00 GMT 2014 rshuman American elm Ulmus americana Fruit (None) 44.707910000000000 -73.678620000000000 38203
Tue Oct 07 00:00:00 GMT 2014 Juliayu25 American elm Ulmus americana Bud Burst 38.986920000000000 -76.942550000000000 39481
Tue Oct 07 00:00:00 GMT 2014 Juliayu25 American elm Ulmus americana First Leaf 38.986920000000000 -76.942550000000000 39482
Sun Oct 12 00:00:00 GMT 2014 Juliayu25 American elm Ulmus americana All Leaves Unfolded 38.986920000000000 -76.942550000000000 39483
Sun Oct 12 00:00:00 GMT 2014 Juliayu25 American elm Ulmus americana 50% Color 38.986920000000000 -76.942550000000000 39484
Sun Oct 12 00:00:00 GMT 2014 Juliayu25 American elm Ulmus americana 50% Leaf Fall 38.986920000000000 -76.942550000000000 39485
Fri Nov 07 00:00:00 GMT 2014 spentzosinghram_Catherine_Cook_School_reporter22 American elm Ulmus americana Leaves Unfolding (None) 41.907760000000000 -87.635850000000000 39944
Fri Nov 07 00:00:00 GMT 2014 spentzosinghram_Catherine_Cook_School_reporter22 American elm Ulmus americana Leaves Changing Color (Middle) 41.907760000000000 -87.635850000000000 39945
Fri Nov 07 00:00:00 GMT 2014 spentzosinghram_Catherine_Cook_School_reporter22 American elm Ulmus americana Leaves Dropping (Middle) 41.907760000000000 -87.635850000000000 39946
Fri Nov 07 00:00:00 GMT 2014 spentzosinghram_Catherine_Cook_School_reporter22 American elm Ulmus americana Flowers (None) 41.907760000000000 -87.635850000000000 39947
Fri Nov 07 00:00:00 GMT 2014 spentzosinghram_Catherine_Cook_School_reporter22 American elm Ulmus americana Fruit (None) 41.907760000000000 -87.635850000000000 39948
Wed Nov 19 00:00:00 GMT 2014 ryanpleune American elm Ulmus americana 50% Color 40.793051000000000 -111.940062000000000 41056
Wed Nov 19 00:00:00 GMT 2014 ryanpleune American elm Ulmus americana Leaves Unfolding (None) 40.792791000000000 -111.941049000000000 41051
Wed Nov 19 00:00:00 GMT 2014 ryanpleune American elm Ulmus americana Leaves Changing Color (Middle) 40.792791000000000 -111.941049000000000 41052
Wed Nov 19 00:00:00 GMT 2014 ryanpleune American elm Ulmus americana Leaves Dropping (Early) 40.792791000000000 -111.941049000000000 41053
Wed Nov 19 00:00:00 GMT 2014 ryanpleune American elm Ulmus americana Flowers (None) 40.792791000000000 -111.941049000000000 41054
Wed Nov 19 00:00:00 GMT 2014 ryanpleune American elm Ulmus americana Fruit (None) 40.792791000000000 -111.941049000000000 41055
Wed Feb 24 00:00:00 GMT 2016 smarani American elm Ulmus americana Leaves Unfolding (None) 40.348746000000000 -74.660229000000000 62075
Wed Feb 24 00:00:00 GMT 2016 smarani American elm Ulmus americana Leaves Changing Color (None) 40.348746000000000 -74.660229000000000 62076
Wed Feb 24 00:00:00 GMT 2016 smarani American elm Ulmus americana Leaves Dropping (Late) 40.348746000000000 -74.660229000000000 62077
Wed Feb 24 00:00:00 GMT 2016 smarani American elm Ulmus americana Flowers (None) 40.348746000000000 -74.660229000000000 62078
Wed Feb 24 00:00:00 GMT 2016 smarani American elm Ulmus americana Fruit (None) 40.348746000000000 -74.660229000000000 62079
Fri Mar 18 00:00:00 GMT 2016 kbchaney American elm Ulmus americana Leaves Unfolding (None) 37.272280000000000 -85.891080000000000 62740
Fri Mar 18 00:00:00 GMT 2016 kbchaney American elm Ulmus americana Leaves Changing Color (None) 37.272280000000000 -85.891080000000000 62741
Fri Mar 18 00:00:00 GMT 2016 kbchaney American elm Ulmus americana Leaves Dropping (None) 37.272280000000000 -85.891080000000000 62742
Fri Mar 18 00:00:00 GMT 2016 kbchaney American elm Ulmus americana Flowers (Early) 37.272280000000000 -85.891080000000000 62743
Fri Mar 18 00:00:00 GMT 2016 kbchaney American elm Ulmus americana Fruit (None) 37.272280000000000 -85.891080000000000 62744
Wed Mar 23 00:00:00 GMT 2016 ncarter2016 American elm Ulmus americana Leaves Unfolding (None) 37.259620000000000 -85.881670000000000 63364
Wed Mar 23 00:00:00 GMT 2016 ncarter2016 American elm Ulmus americana Leaves Changing Color (None) 37.259620000000000 -85.881670000000000 63365
Wed Mar 23 00:00:00 GMT 2016 ncarter2016 American elm Ulmus americana Leaves Dropping (None) 37.259620000000000 -85.881670000000000 63366
Wed Mar 23 00:00:00 GMT 2016 ncarter2016 American elm Ulmus americana Flowers (None) 37.259620000000000 -85.881670000000000 63367
Wed Mar 23 00:00:00 GMT 2016 ncarter2016 American elm Ulmus americana Fruit (None) 37.259620000000000 -85.881670000000000 63368
Wed Apr 06 00:00:00 GMT 2016 motem American elm Ulmus americana Bud Burst 39.155880600000000 -86.524718800000000 64394
Thu Apr 14 00:00:00 GMT 2016 MathewZappa American elm Ulmus americana Full Flower 44.898307000000000 -93.363415000000000 64600
Mon Apr 18 00:00:00 GMT 2016 bthomps1 American elm Ulmus americana First Ripe Fruit 38.195980000000000 -85.534280000000000 64880
Fri Apr 22 00:00:00 GMT 2016 lsevigny American elm Ulmus americana Bud Burst 42.947222000000000 -85.523611000000000 65016
Sun Apr 24 00:00:00 GMT 2016 jcolmenero American elm Ulmus americana Bud Burst 39.593550000000000 -104.942350000000000 65073
Sun Apr 24 00:00:00 GMT 2016 jcolmenero American elm Ulmus americana First Leaf 39.593550000000000 -104.942350000000000 65074
Sun Apr 24 00:00:00 GMT 2016 jcolmenero American elm Ulmus americana Leaves Unfolding (Middle) 39.593550000000000 -104.942350000000000 65075
Sun Apr 24 00:00:00 GMT 2016 jcolmenero American elm Ulmus americana Leaves Changing Color (None) 39.593550000000000 -104.942350000000000 65076
Sun Apr 24 00:00:00 GMT 2016 jcolmenero American elm Ulmus americana Leaves Dropping (None) 39.593550000000000 -104.942350000000000 65077
Sun Apr 24 00:00:00 GMT 2016 jcolmenero American elm Ulmus americana Flowers (None) 39.593550000000000 -104.942350000000000 65078
Sun Apr 24 00:00:00 GMT 2016 jcolmenero American elm Ulmus americana Fruit (None) 39.593550000000000 -104.942350000000000 65079
Mon Mar 07 00:00:00 GMT 2016 fialkofft American elm Ulmus americana Bud Burst 41.032746000000000 -73.716266000000000 65750
Thu Mar 10 00:00:00 GMT 2016 fialkofft American elm Ulmus americana First Flower 41.032746000000000 -73.716266000000000 65751
Thu Mar 10 00:00:00 GMT 2016 fialkofft American elm Ulmus americana Full Flower 41.032746000000000 -73.716266000000000 65752
Sun May 08 00:00:00 GMT 2016 kcsnyder American elm Ulmus americana Bud Burst 42.439010000000000 -76.490980000000000 66524
Mon May 16 00:00:00 GMT 2016 kcsnyder American elm Ulmus americana First Leaf 42.439010000000000 -76.490980000000000 67171
Sun Jun 12 00:00:00 GMT 2016 fulmertracy American elm Ulmus americana Leaves Unfolding (Late) 39.030390000000000 -83.932650000000000 68344
Sun Jun 12 00:00:00 GMT 2016 fulmertracy American elm Ulmus americana Leaves Changing Color (None) 39.030390000000000 -83.932650000000000 68345
Sun Jun 12 00:00:00 GMT 2016 fulmertracy American elm Ulmus americana Leaves Dropping (None) 39.030390000000000 -83.932650000000000 68346
Sun Jun 12 00:00:00 GMT 2016 fulmertracy American elm Ulmus americana Flowers (None) 39.030390000000000 -83.932650000000000 68347
Sun Jun 12 00:00:00 GMT 2016 fulmertracy American elm Ulmus americana Fruit (None) 39.030390000000000 -83.932650000000000 68348
Tue Apr 19 00:00:00 GMT 2016 bthomps1 American elm Ulmus americana All Leaves Unfolded 38.195980000000000 -85.534280000000000 68449
Mon Mar 14 00:00:00 GMT 2016 psaunder American elm Ulmus americana Bud Burst 40.860626000000000 -82.320213000000000 69401
Mon Oct 17 00:00:00 GMT 2016 bthomps1 American elm Ulmus americana 50% Leaf Fall 38.195980000000000 -85.534280000000000 70813
Tue Oct 18 00:00:00 GMT 2016 jcannon American elm Ulmus americana Leaves Unfolding (Late) 42.303810000000000 -71.094350000000000 70940
Tue Oct 18 00:00:00 GMT 2016 jcannon American elm Ulmus americana Leaves Changing Color (Middle) 42.303810000000000 -71.094350000000000 70941
Tue Oct 18 00:00:00 GMT 2016 jcannon American elm Ulmus americana Leaves Dropping (Middle) 42.303810000000000 -71.094350000000000 70942
Tue Oct 18 00:00:00 GMT 2016 jcannon American elm Ulmus americana Flowers (Middle) 42.303810000000000 -71.094350000000000 70943
Tue Oct 18 00:00:00 GMT 2016 jcannon American elm Ulmus americana Fruit (Late) 42.303810000000000 -71.094350000000000 70944
Fri Nov 04 00:00:00 GMT 2016 MrHorambe American elm Ulmus americana Leaves Unfolding (Late) 37.237222000000000 -79.411389000000000 72535
Fri Nov 04 00:00:00 GMT 2016 MrHorambe American elm Ulmus americana Leaves Changing Color (Middle) 37.237222000000000 -79.411389000000000 72536
Fri Nov 04 00:00:00 GMT 2016 MrHorambe American elm Ulmus americana Leaves Dropping (Middle) 37.237222000000000 -79.411389000000000 72537
Fri Nov 04 00:00:00 GMT 2016 MrHorambe American elm Ulmus americana Flowers (Late) 37.237222000000000 -79.411389000000000 72538
Fri Nov 04 00:00:00 GMT 2016 MrHorambe American elm Ulmus americana Fruit (Late) 37.237222000000000 -79.411389000000000 72539
Mon Oct 10 00:00:00 GMT 2016 hrizzo American elm Ulmus americana 50% Leaf Fall 39.027719000000000 -86.440430000000000 73205
Wed Oct 05 00:00:00 GMT 2016 hrwebb American elm Ulmus americana 50% Color 39.153070000000000 -86.486110000000000 73313
Wed Sep 14 00:00:00 GMT 2016 hrwebb American elm Ulmus americana 50% Leaf Fall 39.153070000000000 -86.486110000000000 73314
Tue Oct 25 00:00:00 GMT 2016 haershin American elm Ulmus americana 50% Color 39.173600000000000 -86.508850000000000 73635
Sat Oct 22 00:00:00 GMT 2016 haershin American elm Ulmus americana 50% Leaf Fall 39.173600000000000 -86.508850000000000 73636
Tue Nov 22 00:00:00 GMT 2016 jlapo American elm Ulmus americana Leaves Unfolding (None) 40.719973000000000 -73.795552000000000 74010
Tue Nov 22 00:00:00 GMT 2016 jlapo American elm Ulmus americana Leaves Changing Color (Late) 40.719973000000000 -73.795552000000000 74011
Tue Nov 22 00:00:00 GMT 2016 jlapo American elm Ulmus americana Leaves Dropping (Late) 40.719973000000000 -73.795552000000000 74012
Tue Nov 22 00:00:00 GMT 2016 jlapo American elm Ulmus americana Flowers (None) 40.719973000000000 -73.795552000000000 74013
Tue Nov 22 00:00:00 GMT 2016 jlapo American elm Ulmus americana Fruit (Middle) 40.719973000000000 -73.795552000000000 74014
Tue Nov 29 00:00:00 GMT 2016 Holewinskia American elm Ulmus americana Leaves Unfolding (Middle) 44.216260000000000 -88.426870000000000 74118
Tue Nov 29 00:00:00 GMT 2016 Holewinskia American elm Ulmus americana Leaves Changing Color (Middle) 44.216260000000000 -88.426870000000000 74119
Tue Nov 29 00:00:00 GMT 2016 Holewinskia American elm Ulmus americana Leaves Dropping (Late) 44.216260000000000 -88.426870000000000 74120
Tue Nov 29 00:00:00 GMT 2016 Holewinskia American elm Ulmus americana Flowers (None) 44.216260000000000 -88.426870000000000 74121
Tue Nov 29 00:00:00 GMT 2016 Holewinskia American elm Ulmus americana Fruit (None) 44.216260000000000 -88.426870000000000 74122
Tue Jan 17 00:00:00 GMT 2017 galindoalec American elm Ulmus americana Leaves Unfolding (None) 39.790300000000000 -105.032200000000000 74534
Tue Jan 17 00:00:00 GMT 2017 galindoalec American elm Ulmus americana Leaves Changing Color (None) 39.790300000000000 -105.032200000000000 74535
Tue Jan 17 00:00:00 GMT 2017 galindoalec American elm Ulmus americana Leaves Dropping (Late) 39.790300000000000 -105.032200000000000 74536
Tue Jan 17 00:00:00 GMT 2017 galindoalec American elm Ulmus americana Flowers (None) 39.790300000000000 -105.032200000000000 74537
Tue Jan 17 00:00:00 GMT 2017 galindoalec American elm Ulmus americana Fruit (None) 39.790300000000000 -105.032200000000000 74538
Fri Feb 17 00:00:00 GMT 2017 bthomps1 American elm Ulmus americana First Flower 38.195980000000000 -85.534280000000000 75032
Fri Feb 24 00:00:00 GMT 2017 bthomps1 American elm Ulmus americana Full Flower 38.195980000000000 -85.534280000000000 75066
Wed Mar 01 00:00:00 GMT 2017 pitm American elm Ulmus americana Leaves Unfolding (None) 39.790600000000000 -76.891894000000000 75169
Wed Mar 01 00:00:00 GMT 2017 pitm American elm Ulmus americana Leaves Changing Color (None) 39.790600000000000 -76.891894000000000 75170
Wed Mar 01 00:00:00 GMT 2017 pitm American elm Ulmus americana Leaves Dropping (None) 39.790600000000000 -76.891894000000000 75171
Wed Mar 01 00:00:00 GMT 2017 pitm American elm Ulmus americana Flowers (Middle) 39.790600000000000 -76.891894000000000 75172
Wed Mar 01 00:00:00 GMT 2017 pitm American elm Ulmus americana Fruit (None) 39.790600000000000 -76.891894000000000 75173
Fri Mar 03 00:00:00 GMT 2017 elen2 American elm Ulmus americana Bud Burst 38.988535000000000 -94.813857000000000 75480
Thu Mar 16 00:00:00 GMT 2017 elen2 American elm Ulmus americana First Leaf 38.988535000000000 -94.813857000000000 75644
Mon Mar 20 00:00:00 GMT 2017 chernandez006 American elm Ulmus americana Leaves Unfolding (Middle) 39.790300000000000 -105.032200000000000 76038
Mon Mar 20 00:00:00 GMT 2017 chernandez006 American elm Ulmus americana Leaves Changing Color (None) 39.790300000000000 -105.032200000000000 76039
Mon Mar 20 00:00:00 GMT 2017 chernandez006 American elm Ulmus americana Leaves Dropping (None) 39.790300000000000 -105.032200000000000 76040
Mon Mar 20 00:00:00 GMT 2017 chernandez006 American elm Ulmus americana Flowers (None) 39.790300000000000 -105.032200000000000 76041
Mon Mar 20 00:00:00 GMT 2017 chernandez006 American elm Ulmus americana Fruit (None) 39.790300000000000 -105.032200000000000 76042
Tue Mar 14 00:00:00 GMT 2017 athrock American elm Ulmus americana First Flower 41.114538000000000 -80.320616000000000 76222
Fri Mar 03 00:00:00 GMT 2017 elen2 American elm Ulmus americana First Flower 38.988535000000000 -94.813857000000000 76369
Thu Mar 23 00:00:00 GMT 2017 elen2 American elm Ulmus americana Full Flower 38.988535000000000 -94.813857000000000 76370
Tue Mar 28 00:00:00 GMT 2017 bthomps1 American elm Ulmus americana First Ripe Fruit 38.195980000000000 -85.534280000000000 76624
Thu Feb 16 00:00:00 GMT 2017 greenmee American elm Ulmus americana Bud Burst 39.169016000000000 -86.511538000000000 77003
Wed Mar 01 00:00:00 GMT 2017 greenmee American elm Ulmus americana First Leaf 39.169016000000000 -86.511538000000000 77004
Tue Apr 04 00:00:00 GMT 2017 greenmee American elm Ulmus americana All Leaves Unfolded 39.169016000000000 -86.511538000000000 77005
Wed Mar 22 00:00:00 GMT 2017 jcarbuck American elm Ulmus americana Bud Burst 39.184910000000000 -86.517450000000000 77099
Thu Mar 30 00:00:00 GMT 2017 carrie9835 American elm Ulmus americana Bud Burst 39.176340000000000 -86.527400000000000 77176
Wed Apr 12 00:00:00 GMT 2017 semihoff American elm Ulmus americana Leaves Unfolding (Late) 39.172688000000000 -86.527126000000000 77604
Wed Apr 12 00:00:00 GMT 2017 semihoff American elm Ulmus americana Leaves Changing Color (None) 39.172688000000000 -86.527126000000000 77605
Wed Apr 12 00:00:00 GMT 2017 semihoff American elm Ulmus americana Leaves Dropping (None) 39.172688000000000 -86.527126000000000 77606
Wed Apr 12 00:00:00 GMT 2017 semihoff American elm Ulmus americana Flowers (Late) 39.172688000000000 -86.527126000000000 77607
Wed Apr 12 00:00:00 GMT 2017 semihoff American elm Ulmus americana Fruit (Early) 39.172688000000000 -86.527126000000000 77608
Mon Apr 10 00:00:00 GMT 2017 bthomps1 American elm Ulmus americana First Leaf 38.195980000000000 -85.534280000000000 78587
Fri Apr 14 00:00:00 GMT 2017 bthomps1 American elm Ulmus americana All Leaves Unfolded 38.195980000000000 -85.534280000000000 78588
Fri Apr 14 00:00:00 GMT 2017 bthomps1 American elm Ulmus americana Full Fruiting 38.195980000000000 -85.534280000000000 78589
Fri Apr 21 00:00:00 GMT 2017 RyanBogas American elm Ulmus americana Leaves Unfolding (Early) 40.341500000000000 -75.173330000000000 79090
Fri Apr 21 00:00:00 GMT 2017 RyanBogas American elm Ulmus americana Leaves Changing Color (None) 40.341500000000000 -75.173330000000000 79091
Fri Apr 21 00:00:00 GMT 2017 RyanBogas American elm Ulmus americana Leaves Dropping (None) 40.341500000000000 -75.173330000000000 79092
Fri Apr 21 00:00:00 GMT 2017 RyanBogas American elm Ulmus americana Flowers (None) 40.341500000000000 -75.173330000000000 79093
Fri Apr 21 00:00:00 GMT 2017 RyanBogas American elm Ulmus americana Fruit (None) 40.341500000000000 -75.173330000000000 79094
Mon Apr 24 00:00:00 GMT 2017 szz5246 American elm Ulmus americana Leaves Unfolding (Late) 40.115490000000000 -75.110290000000000 79830
Mon Apr 24 00:00:00 GMT 2017 szz5246 American elm Ulmus americana Leaves Changing Color (None) 40.115490000000000 -75.110290000000000 79831
Mon Apr 24 00:00:00 GMT 2017 szz5246 American elm Ulmus americana Leaves Dropping (None) 40.115490000000000 -75.110290000000000 79832
Mon Apr 24 00:00:00 GMT 2017 szz5246 American elm Ulmus americana Flowers (None) 40.115490000000000 -75.110290000000000 79833
Mon Apr 24 00:00:00 GMT 2017 szz5246 American elm Ulmus americana Fruit (None) 40.115490000000000 -75.110290000000000 79834
Mon Apr 24 00:00:00 GMT 2017 szz5246 American elm Ulmus americana Leaves Unfolding (Late) 40.115490000000000 -75.110290000000000 79835
Mon Apr 24 00:00:00 GMT 2017 szz5246 American elm Ulmus americana Leaves Changing Color (None) 40.115490000000000 -75.110290000000000 79836
Mon Apr 24 00:00:00 GMT 2017 szz5246 American elm Ulmus americana Leaves Dropping (None) 40.115490000000000 -75.110290000000000 79837
Mon Apr 24 00:00:00 GMT 2017 szz5246 American elm Ulmus americana Flowers (Early) 40.115490000000000 -75.110290000000000 79838
Mon Apr 24 00:00:00 GMT 2017 szz5246 American elm Ulmus americana Fruit (Early) 40.115490000000000 -75.110290000000000 79839
Mon Apr 24 00:00:00 GMT 2017 greenman2234 American elm Ulmus americana Leaves Unfolding (Early) 40.051890000000000 -75.114040000000000 79940
Mon Apr 24 00:00:00 GMT 2017 greenman2234 American elm Ulmus americana Leaves Changing Color (None) 40.051890000000000 -75.114040000000000 79941
Mon Apr 24 00:00:00 GMT 2017 greenman2234 American elm Ulmus americana Leaves Dropping (None) 40.051890000000000 -75.114040000000000 79942
Mon Apr 24 00:00:00 GMT 2017 greenman2234 American elm Ulmus americana Flowers (None) 40.051890000000000 -75.114040000000000 79943
Mon Apr 24 00:00:00 GMT 2017 greenman2234 American elm Ulmus americana Fruit (None) 40.051890000000000 -75.114040000000000 79944
Mon Apr 24 00:00:00 GMT 2017 greenman2234 American elm Ulmus americana Leaves Unfolding (Middle) 40.095940000000000 -75.125170000000000 79950
Mon Apr 24 00:00:00 GMT 2017 greenman2234 American elm Ulmus americana Leaves Changing Color (None) 40.095940000000000 -75.125170000000000 79951
Mon Apr 24 00:00:00 GMT 2017 greenman2234 American elm Ulmus americana Leaves Dropping (Middle) 40.095940000000000 -75.125170000000000 79952
Mon Apr 24 00:00:00 GMT 2017 greenman2234 American elm Ulmus americana Flowers (None) 40.095940000000000 -75.125170000000000 79953
Mon Apr 24 00:00:00 GMT 2017 greenman2234 American elm Ulmus americana Fruit (None) 40.095940000000000 -75.125170000000000 79954
Fri Apr 28 00:00:00 GMT 2017 chernandez006 American elm Ulmus americana Leaves Unfolding (Middle) 39.790300000000000 -105.032200000000000 80568
Fri Apr 28 00:00:00 GMT 2017 chernandez006 American elm Ulmus americana Leaves Changing Color (Middle) 39.790300000000000 -105.032200000000000 80569
Fri Apr 28 00:00:00 GMT 2017 chernandez006 American elm Ulmus americana Leaves Dropping (None) 39.790300000000000 -105.032200000000000 80570
Fri Apr 28 00:00:00 GMT 2017 chernandez006 American elm Ulmus americana Flowers (Middle) 39.790300000000000 -105.032200000000000 80571
Fri Apr 28 00:00:00 GMT 2017 chernandez006 American elm Ulmus americana Fruit (Early) 39.790300000000000 -105.032200000000000 80572

*All downloadable materials require the free Adobe Reader.